DW1256 Weather Reports


Display with metric or nautical units.
time (UTC)temp
F
wind
direction
speed
MPH
gust
MPH
rain 1hr
in
rain 24hr
in
rain mn
in
humidity
%
barometer
mb
20260505003622 72 0 4.0 13.0 0.00 0.00 0.00 38 999.1
20260505002619 73 0 5.0 14.0 0.00 0.00 0.00 37 998.9
20260505002119 74 0 5.0 14.0 0.00 0.00 0.00 36 998.8
20260505001619 74 0 6.0 15.0 0.00 0.00 0.00 35 998.7
20260505001120 74 0 6.0 16.0 0.00 0.00 0.00 34 998.5
20260504235618 76 257 5.0 13.0 0.00 0.00 0.00 33 998.2
20260504235118 76 174 7.0 18.0 0.00 0.00 0.00 31 998.3
20260504234619 76 232 7.0 18.0 0.00 0.00 0.00 30 998.3
20260504233618 76 246 9.0 25.0 0.00 0.00 0.00 31 998.3
20260504233115 77 295 9.0 25.0 0.00 0.00 0.00 32 998.4
20260504232114 77 207 7.0 18.0 0.00 0.00 0.00 32 998.5
20260504231115 77 198 6.0 15.0 0.00 0.00 0.00 32 998.8
20260504230610 77 291 7.0 16.0 0.00 0.00 0.00 32 998.8
20260504225610 77 223 8.0 21.0 0.00 0.00 0.00 32 998.9
20260504224609 77 234 8.0 23.0 0.00 0.00 0.00 31 999.0
20260504223611 77 236 7.0 33.0 0.00 0.00 0.00 29 999.2
20260504223111 78 208 7.0 16.0 0.00 0.00 0.00 29 999.3
20260504222611 78 278 7.0 17.0 0.00 0.00 0.00 29 999.2
20260504222106 78 181 7.0 18.0 0.00 0.00 0.00 28 999.4
20260504221106 77 187 7.0 16.0 0.00 0.00 0.00 29 999.4
20260504220606 77 198 7.0 16.0 0.00 0.00 0.00 29 999.5
20260504220106 77 205 6.0 16.0 0.00 0.00 0.00 29 999.6
20260504215606 78 215 6.0 19.0 0.00 0.00 0.00 31 999.7
20260504215107 77 172 8.0 19.0 0.00 0.00 0.00 28 999.7
20260504214606 77 0 9.0 26.0 0.00 0.00 0.00 29 999.7
20260504214107 76 0 10.0 26.0 0.00 0.00 0.00 30 999.7
20260504213602 77 0 9.0 25.0 0.00 0.00 0.00 29 999.9
20260504213102 76 0 8.0 26.0 0.00 0.00 0.00 29 1000.0
20260504212602 77 221 8.0 26.0 0.00 0.00 0.00 29 1000.0
20260504212102 78 90 9.0 22.0 0.00 0.00 0.00 29 1000.1
20260504210601 77 132 6.0 14.0 0.00 0.00 0.00 35 1000.2
20260504210101 77 196 6.0 13.0 0.00 0.00 0.00 36 1000.3
20260504205602 77 244 7.0 19.0 0.00 0.00 0.00 36 1000.4
20260504205057 77 245 6.0 19.0 0.00 0.00 0.00 37 1000.4
20260504204559 77 242 6.0 17.0 0.00 0.00 0.00 38 1000.4
20260504204058 77 216 6.0 22.0 0.00 0.00 0.00 38 1000.5
20260504203558 77 162 6.0 22.0 0.00 0.00 0.00 39 1000.5
20260504203058 77 0 6.0 17.0 0.00 0.00 0.00 41 1000.6
20260504202558 76 0 8.0 23.0 0.00 0.00 0.00 39 1000.6
20260504202057 76 0 8.0 23.0 0.00 0.00 0.00 39 1000.8
20260504201557 77 168 6.0 21.0 0.00 0.00 0.00 39 1000.8
20260504200553 75 0 6.0 14.0 0.00 0.00 0.00 42 1000.9
20260504200054 76 0 6.0 14.0 0.00 0.00 0.00 41 1001.0
20260504195553 76 0 6.0 14.0 0.00 0.00 0.00 41 1001.1
20260504195054 76 0 6.0 14.0 0.00 0.00 0.00 39 1001.2
20260504194553 76 0 6.0 14.0 0.00 0.00 0.00 40 1001.2
20260504194056 76 0 7.0 15.0 0.00 0.00 0.00 40 1001.3
20260504193556 76 132 8.0 19.0 0.00 0.00 0.00 39 1001.3
20260504193057 75 0 9.0 21.0 0.00 0.00 0.00 38 1001.3
20260504192557 75 231 8.0 21.0 0.00 0.00 0.00 38 1001.5
20260504192055 76 0 7.0 20.0 0.00 0.00 0.00 36 1001.5
20260504191552 76 0 6.0 20.0 0.00 0.00 0.00 35 1001.4
20260504191052 76 0 6.0 17.0 0.00 0.00 0.00 34 1001.2
20260504190549 76 0 8.0 17.0 0.00 0.00 0.00 35 1001.2
20260504190051 76 200 8.0 17.0 0.00 0.00 0.00 34 1001.2
20260504185549 76 242 8.0 20.0 0.00 0.00 0.00 36 1001.3
20260504184550 76 0 8.0 18.0 0.00 0.00 0.00 33 1001.3
20260504184051 76 0 8.0 18.0 0.00 0.00 0.00 35 1001.3
20260504183550 76 0 8.0 23.0 0.00 0.00 0.00 33 1001.3
20260504181540 76 260 7.0 22.0 0.00 0.00 0.00 35 1001.6
20260504181037 76 0 7.0 22.0 0.00 0.00 0.00 33 1001.6
20260504180538 77 0 8.0 19.0 0.00 0.00 0.00 33 1001.6
20260504175538 76 0 9.0 22.0 0.00 0.00 0.00 31 1001.6
20260504174538 76 0 10.0 21.0 0.00 0.00 0.00 32 1001.6
20260504174037 76 0 11.0 23.0 0.00 0.00 0.00 30 1001.6
20260504173538 76 242 11.0 23.0 0.00 0.00 0.00 32 1001.8
20260504173038 76 0 10.0 20.0 0.00 0.00 0.00 32 1001.6
20260504171538 77 0 10.0 21.0 0.00 0.00 0.00 32 1001.6
20260504170541 76 0 10.0 19.0 0.00 0.00 0.00 33 1001.6
20260504160429 75 0 5.0 11.0 0.00 0.00 0.00 38 1001.9
20260504150418 70 0 5.0 16.0 0.00 0.00 0.00 45 1002.4
20260504141334 67 0 4.0 11.0 0.00 0.00 0.00 47 1003.4
20260504140322 65 0 3.0 8.0 0.00 0.00 0.00 51 1003.5
20260504130716 58 0 3.0 7.0 0.00 0.00 0.00 63 1004.3
20260504120202 50 212 2.0 6.0 0.00 0.00 0.00 68 1004.4
20260504110621 48 194 1.0 4.0 0.00 0.00 0.00 66 1004.2
20260504110114 48 166 1.0 3.0 0.00 0.00 0.00 66 1004.1
20260504100508 49 164 1.0 4.0 0.00 0.00 0.00 65 1004.3
20260504081802 50 186 2.0 6.0 0.00 0.00 0.00 63 1004.8
20260504081257 50 200 3.0 8.0 0.00 0.00 0.00 63 1004.8
20260504080751 50 181 2.0 9.0 0.00 0.00 0.00 63 1004.7
20260504080245 50 188 2.0 9.0 0.00 0.00 0.00 63 1004.7
20260504070132 51 173 2.0 5.0 0.00 0.00 0.00 60 1005.5
20260504050415 53 217 2.0 6.0 0.00 0.00 0.00 57 1006.5
20260504045909 53 195 2.0 8.0 0.00 0.00 0.00 57 1006.6
20260504045401 53 174 2.0 8.0 0.00 0.00 0.00 57 1006.5
20260504044855 53 186 2.0 6.0 0.00 0.00 0.00 57 1006.5
20260504044349 53 186 2.0 7.0 0.00 0.00 0.00 56 1006.5
20260504043844 54 225 2.0 7.0 0.00 0.00 0.00 56 1006.6
20260504043338 54 163 2.0 8.0 0.00 0.00 0.00 56 1006.7
20260504042325 54 171 1.0 5.0 0.00 0.00 0.00 55 1006.7
20260504041820 54 153 1.0 9.0 0.00 0.00 0.00 55 1006.7
20260504041313 54 175 2.0 9.0 0.00 0.00 0.00 55 1006.7
20260504035755 55 185 0.0 3.0 0.00 0.00 0.00 54 1006.7
20260504035249 55 198 1.0 4.0 0.00 0.00 0.00 53 1006.8
20260504034743 55 188 2.0 7.0 0.00 0.00 0.00 53 1006.9
20260504034238 55 202 2.0 7.0 0.00 0.00 0.00 53 1006.9
20260504033731 55 168 1.0 5.0 0.00 0.00 0.00 53 1006.9
20260504033226 55 206 1.0 5.0 0.00 0.00 0.00 53 1007.0
20260504032719 55 209 1.0 6.0 0.00 0.00 0.00 53 1007.0
20260504031708 56 196 2.0 6.0 0.00 0.00 0.00 52 1007.1
20260504031201 56 155 1.0 6.0 0.00 0.00 0.00 52 1007.0
20260504030655 56 198 1.0 5.0 0.00 0.00 0.00 52 1007.1
20260504025643 56 186 2.0 7.0 0.00 0.00 0.00 51 1007.2
20260504024631 56 179 3.0 8.0 0.00 0.00 0.00 50 1007.2
20260504023619 57 169 3.0 9.0 0.00 0.00 0.00 50 1007.1
20260504023113 57 187 3.0 6.0 0.00 0.00 0.00 50 1007.2
20260504022607 57 196 2.0 6.0 0.00 0.00 0.00 50 1007.1
20260504022101 57 188 2.0 6.0 0.00 0.00 0.00 49 1007.1
20260504021050 58 166 1.0 5.0 0.00 0.00 0.00 48 1007.1
20260504020544 58 175 1.0 5.0 0.00 0.00 0.00 47 1007.1
20260504020037 58 207 0.0 1.0 0.00 0.00 0.00 47 1007.0
20260504015532 58 207 1.0 3.0 0.00 0.00 0.00 47 1007.0
20260504015026 59 265 1.0 4.0 0.00 0.00 0.00 47 1007.0
20260504014013 59 186 2.0 8.0 0.00 0.00 0.00 46 1006.9
20260504013507 60 156 2.0 5.0 0.00 0.00 0.00 45 1006.9
20260504013002 60 209 1.0 4.0 0.00 0.00 0.00 44 1007.0
20260504011949 60 180 2.0 5.0 0.00 0.00 0.00 43 1006.9
20260504011443 61 174 1.0 4.0 0.00 0.00 0.00 43 1006.9
20260504010431 62 165 1.0 4.0 0.00 0.00 0.00 42 1006.9
20260504005925 62 163 1.0 5.0 0.00 0.00 0.00 41 1006.9
20260504005419 62 178 1.0 5.0 0.00 0.00 0.00 40 1006.9
20260504004913 63 172 1.0 5.0 0.00 0.00 0.00 40 1006.9
20260504004407 63 228 1.0 6.0 0.00 0.00 0.00 39 1006.8